Time,TemperatureF,DewpointF,PressureIn,WindDirection,WindDirectionDegrees,WindSpeedMPH,WindSpeedGustMPH,Humidity,HourlyPrecipIn,Conditions,Clouds,dailyrainin,SoftwareType,DateUTC
2013-03-12 00:45:00,55.6,55.3,29.84,ESE,112,0.0,-999.0,99,-99.99,,,0.00,Acu-Link.com,2013-03-12 04:45:00,
2013-03-12 01:17:00,55.8,55.5,29.83,South,180,0.0,-999.0,99,-99.99,,,0.10,Acu-Link.com,2013-03-12 05:17:00,
2013-03-12 01:33:00,55.8,55.5,29.82,SSE,157,0.0,-999.0,99,-99.99,,,0.10,Acu-Link.com,2013-03-12 05:33:00,
2013-03-12 01:48:00,55.8,55.5,29.82,South,180,0.0,-999.0,99,-99.99,,,0.10,Acu-Link.com,2013-03-12 05:48:00,
2013-03-12 02:03:00,55.8,55.5,29.82,South,180,0.0,-999.0,99,-99.99,,,0.10,Acu-Link.com,2013-03-12 06:03:00,
2013-03-12 02:19:00,55.8,55.5,29.82,SSE,157,0.0,-999.0,99,-99.99,,,0.10,Acu-Link.com,2013-03-12 06:19:00,
2013-03-12 02:34:00,55.9,55.6,29.82,SSE,157,0.0,-999.0,99,-99.99,,,0.10,Acu-Link.com,2013-03-12 06:34:00,
2013-03-12 02:52:00,56.1,55.8,29.82,NNW,337,0.0,-999.0,99,-99.99,,,0.11,Acu-Link.com,2013-03-12 06:52:00,
2013-03-12 03:07:00,56.3,56.0,29.82,South,180,0.0,-999.0,99,-99.99,,,0.11,Acu-Link.com,2013-03-12 07:07:00,
2013-03-12 03:23:00,56.3,56.0,29.81,SSE,157,0.0,-999.0,99,-99.99,,,0.11,Acu-Link.com,2013-03-12 07:23:00,
2013-03-12 03:39:00,56.3,56.0,29.81,SSW,202,0.0,-999.0,99,-99.99,,,0.11,Acu-Link.com,2013-03-12 07:39:00,
2013-03-12 03:54:00,56.3,56.0,29.81,South,180,0.0,-999.0,99,-99.99,,,0.11,Acu-Link.com,2013-03-12 07:54:00,
2013-03-12 04:09:00,56.3,56.0,29.81,WNW,292,1.7,-999.0,99,-99.99,,,0.11,Acu-Link.com,2013-03-12 08:09:00,
2013-03-12 05:06:00,56.5,56.2,29.82,SSE,157,0.0,-999.0,99,-99.99,,,0.12,Acu-Link.com,2013-03-12 09:06:00,
2013-03-12 05:22:00,56.5,56.2,29.83,ESE,112,0.0,-999.0,99,-99.99,,,0.13,Acu-Link.com,2013-03-12 09:22:00,
2013-03-12 05:37:00,56.1,55.8,29.83,South,180,0.0,-999.0,99,-99.99,,,0.13,Acu-Link.com,2013-03-12 09:37:00,
2013-03-12 05:53:00,55.9,55.6,29.83,SSE,157,0.0,-999.0,99,-99.99,,,0.13,Acu-Link.com,2013-03-12 09:53:00,
2013-03-12 06:09:00,55.4,55.1,29.84,SSW,202,0.0,-999.0,99,-99.99,,,0.13,Acu-Link.com,2013-03-12 10:09:00,
2013-03-12 06:26:00,55.0,54.7,29.85,East,90,0.0,-999.0,99,-99.99,,,0.13,Acu-Link.com,2013-03-12 10:26:00,
2013-03-12 06:42:00,54.9,54.6,29.86,South,180,0.0,-999.0,99,-99.99,,,0.13,Acu-Link.com,2013-03-12 10:42:00,
2013-03-12 06:58:00,54.3,54.0,29.87,SSW,202,0.0,-999.0,99,-99.99,,,0.13,Acu-Link.com,2013-03-12 10:58:00,
2013-03-12 07:14:00,54.1,53.8,29.87,West,270,0.0,-999.0,99,-99.99,,,0.13,Acu-Link.com,2013-03-12 11:14:00,
2013-03-12 07:30:00,53.2,52.9,29.87,West,270,0.0,-999.0,99,-99.99,,,0.13,Acu-Link.com,2013-03-12 11:30:00,
2013-03-12 07:45:00,52.2,51.9,29.88,South,180,0.0,-999.0,99,-99.99,,,0.13,Acu-Link.com,2013-03-12 11:45:00,
2013-03-12 08:01:00,51.4,51.1,29.89,SSW,202,1.7,-999.0,99,-99.99,,,0.13,Acu-Link.com,2013-03-12 12:01:00,
2013-03-12 08:17:00,50.5,50.2,29.90,SW,225,0.0,-999.0,99,-99.99,,,0.13,Acu-Link.com,2013-03-12 12:17:00,
2013-03-12 08:32:00,50.5,50.2,29.91,SSW,202,0.0,-999.0,99,-99.99,,,0.13,Acu-Link.com,2013-03-12 12:32:00,
2013-03-12 08:47:00,50.4,50.1,29.92,WSW,247,0.0,-999.0,99,-99.99,,,0.13,Acu-Link.com,2013-03-12 12:47:00,
2013-03-12 09:02:00,50.4,50.1,29.93,ESE,112,0.0,-999.0,99,-99.99,,,0.13,Acu-Link.com,2013-03-12 13:02:00,
2013-03-12 09:18:00,50.7,49.9,29.93,West,270,1.1,-999.0,97,-99.99,,,0.13,Acu-Link.com,2013-03-12 13:18:00,
2013-03-12 09:33:00,50.5,49.1,29.93,West,270,1.7,-999.0,95,-99.99,,,0.13,Acu-Link.com,2013-03-12 13:33:00,
2013-03-12 09:48:00,51.3,50.2,29.94,SSE,157,0.0,-999.0,96,-99.99,,,0.13,Acu-Link.com,2013-03-12 13:48:00,
2013-03-12 10:04:00,51.6,49.6,29.94,South,180,1.7,-999.0,93,-99.99,,,0.13,Acu-Link.com,2013-03-12 14:04:00,
2013-03-12 10:19:00,51.8,49.0,29.94,SW,225,0.0,-999.0,90,-99.99,,,0.13,Acu-Link.com,2013-03-12 14:19:00,
2013-03-12 10:34:00,51.8,49.0,29.94,SSW,202,0.0,-999.0,90,-99.99,,,0.13,Acu-Link.com,2013-03-12 14:34:00,
2013-03-12 10:49:00,52.5,48.1,29.94,ESE,112,1.7,-999.0,85,-99.99,,,0.13,Acu-Link.com,2013-03-12 14:49:00,
2013-03-12 11:05:00,53.8,49.1,29.94,NNE,22,2.7,-999.0,84,-99.99,,,0.13,Acu-Link.com,2013-03-12 15:05:00,
2013-03-12 11:20:00,54.9,49.2,29.96,South,180,1.7,-999.0,81,-99.99,,,0.13,Acu-Link.com,2013-03-12 15:20:00,
2013-03-12 11:35:00,55.4,50.0,29.95,South,180,1.7,-999.0,82,-99.99,,,0.13,Acu-Link.com,2013-03-12 15:35:00,
2013-03-12 11:51:00,55.2,48.5,29.95,SSW,202,0.0,-999.0,78,-99.99,,,0.13,Acu-Link.com,2013-03-12 15:51:00,
2013-03-12 12:06:00,57.6,49.4,29.95,SSW,202,2.7,-999.0,74,-99.99,,,0.13,Acu-Link.com,2013-03-12 16:06:00,
2013-03-12 12:22:00,59.5,50.1,29.95,South,180,3.2,-999.0,71,-99.99,,,0.13,Acu-Link.com,2013-03-12 16:22:00,
2013-03-12 12:37:00,60.1,49.5,29.95,West,270,2.7,-999.0,68,-99.99,,,0.13,Acu-Link.com,2013-03-12 16:37:00,
2013-03-12 12:52:00,61.2,50.2,29.96,NW,315,1.7,-999.0,67,-99.99,,,0.13,Acu-Link.com,2013-03-12 16:52:00,
2013-03-12 13:08:00,62.8,50.9,29.96,WNW,292,1.1,-999.0,65,-99.99,,,0.13,Acu-Link.com,2013-03-12 17:08:00,
2013-03-12 13:23:00,62.8,48.7,29.96,NW,315,2.7,-999.0,60,-99.99,,,0.13,Acu-Link.com,2013-03-12 17:23:00,
2013-03-12 13:39:00,65.3,50.1,29.95,NW,315,1.7,-999.0,58,-99.99,,,0.13,Acu-Link.com,2013-03-12 17:39:00,
2013-03-12 13:54:00,64.9,47.9,29.95,WNW,292,1.7,-999.0,54,-99.99,,,0.13,Acu-Link.com,2013-03-12 17:54:00,
2013-03-12 14:09:00,66.0,48.9,29.94,South,180,2.7,-999.0,54,-99.99,,,0.13,Acu-Link.com,2013-03-12 18:09:00,
2013-03-12 14:24:00,67.5,47.7,29.94,SE,135,1.1,-999.0,49,-99.99,,,0.13,Acu-Link.com,2013-03-12 18:24:00,
2013-03-12 14:40:00,67.6,45.5,29.93,ESE,112,1.1,-999.0,45,-99.99,,,0.13,Acu-Link.com,2013-03-12 18:40:00,
2013-03-12 14:55:00,67.8,45.7,29.92,SSE,157,2.7,-999.0,45,-99.99,,,0.13,Acu-Link.com,2013-03-12 18:55:00,
2013-03-12 15:10:00,66.7,45.3,29.93,NNW,337,2.2,-999.0,46,-99.99,,,0.13,Acu-Link.com,2013-03-12 19:10:00,
2013-03-12 15:41:00,68.0,42.8,29.91,NNE,22,2.2,-999.0,40,-99.99,,,0.13,Acu-Link.com,2013-03-12 19:41:00,
2013-03-12 15:56:00,68.9,42.2,29.91,SW,225,1.7,-999.0,38,-99.99,,,0.13,Acu-Link.com,2013-03-12 19:56:00,
2013-03-12 16:12:00,67.8,40.6,29.91,West,270,0.0,-999.0,37,-99.99,,,0.13,Acu-Link.com,2013-03-12 20:12:00,
2013-03-12 16:27:00,68.2,40.2,29.91,East,90,1.1,-999.0,36,-99.99,,,0.13,Acu-Link.com,2013-03-12 20:27:00,
2013-03-12 16:42:00,67.8,40.6,29.91,South,180,0.0,-999.0,37,-99.99,,,0.13,Acu-Link.com,2013-03-12 20:42:00,
2013-03-12 16:58:00,68.7,40.7,29.91,SSE,157,2.7,-999.0,36,-99.99,,,0.13,Acu-Link.com,2013-03-12 20:58:00,
2013-03-12 17:16:00,69.3,40.5,29.91,East,90,1.1,-999.0,35,-99.99,,,0.13,Acu-Link.com,2013-03-12 21:16:00,
2013-03-12 17:33:00,68.4,38.9,29.91,SSE,157,2.2,-999.0,34,-99.99,,,0.14,Acu-Link.com,2013-03-12 21:33:00,
2013-03-12 17:49:00,68.0,40.0,29.91,SE,135,0.0,-999.0,36,-99.99,,,0.14,Acu-Link.com,2013-03-12 21:49:00,
2013-03-12 18:05:00,67.6,37.5,29.92,West,270,0.0,-999.0,33,-99.99,,,0.14,Acu-Link.com,2013-03-12 22:05:00,
2013-03-12 18:20:00,66.4,37.2,29.92,SE,135,4.2,-999.0,34,-99.99,,,0.14,Acu-Link.com,2013-03-12 22:20:00,
2013-03-12 18:52:00,63.5,36.8,29.94,West,270,2.2,-999.0,37,-99.99,,,0.14,Acu-Link.com,2013-03-12 22:52:00,
2013-03-12 19:07:00,62.6,36.0,29.94,SSW,202,1.7,-999.0,37,-99.99,,,0.14,Acu-Link.com,2013-03-12 23:07:00,
2013-03-12 19:22:00,61.5,35.7,29.95,WNW,292,1.1,-999.0,38,-99.99,,,0.14,Acu-Link.com,2013-03-12 23:22:00,
2013-03-12 19:38:00,59.9,35.5,29.97,SW,225,0.0,-999.0,40,-99.99,,,0.14,Acu-Link.com,2013-03-12 23:38:00,
2013-03-12 19:54:00,58.8,33.9,29.97,NNW,337,2.2,-999.0,39,-99.99,,,0.14,Acu-Link.com,2013-03-12 23:54:00,
2013-03-12 20:10:00,58.1,34.5,29.99,WSW,247,1.7,-999.0,41,-99.99,,,0.14,Acu-Link.com,2013-03-13 00:10:00,
2013-03-12 21:04:00,55.9,27.9,30.01,WNW,292,4.7,-999.0,34,-99.99,,,0.14,Acu-Link.com,2013-03-13 01:04:00,
2013-03-12 21:38:00,55.9,27.9,30.03,WNW,292,2.2,-999.0,34,-99.99,,,0.14,Acu-Link.com,2013-03-13 01:38:00,